Overview Statistics Trail Chart Weather Telemetry Raw packets
 

This is the latest recevied weather packets stored in our database for station/object IZ5RIE-13. If no packets are shown the sender has not sent any weather packets the latest 10 day(s).

<< 27 28 29 30 31 32 33 >>
Time Temp. Humidity Pressure Rain* Wind** Luminosity Snow
1788186533 36.11° C 82% 1017.2 hPa - - - -
1788185633 36.67° C 77% 1017.3 hPa - - - -
1788184736 36.11° C 90% 1017.4 hPa - - - -
1788183836 36.67° C 83% 1017.4 hPa - - - -
1788182936 36.11° C 100% 1017.7 hPa - - - -
1788182035 36.11° C 100% 1017.7 hPa - - - -
1788181135 36.67° C 86% 1017.7 hPa - - - -
1788180235 36.67° C 75% 1017.7 hPa - - - -
1788179335 37.22° C 74% 1017.7 hPa - - - -
1788178435 36.67° C 81% 1017.7 hPa - - - -
1788177535 36.67° C 82% 1017.7 hPa - - - -
1788176635 36.11° C 89% 1017.8 hPa - - - -
1788175734 36.11° C 85% 1017.8 hPa - - - -
1788174834 36.11° C 82% 1017.9 hPa - - - -
1788173934 36.11° C 86% 1017.9 hPa - - - -
1788173034 35.56° C 87% 1018 hPa - - - -
1788172134 35.56° C 81% 1017.9 hPa - - - -
1788171234 35.56° C 82% 1017.9 hPa - - - -
1788170333 35.56° C 85% 1017.9 hPa - - - -
1788169433 36.11° C 72% 1017.9 hPa - - - -
1788168533 36.11° C 75% 1017.9 hPa - - - -
1788167633 35.56° C 82% 1017.8 hPa - - - -
1788166733 35° C 92% 1017.8 hPa - - - -
1788165833 33.89° C 100% 1017.8 hPa - - - -
1788164933 32.22° C 100% 1017.8 hPa - - - -

* Rain since midnight (hover to see other rain measurements)
** Current wind speed in m/s (hover to see current wind gust speed)